Location: Unspecified
(48.7670°N, 0.0000°E)
Time: 03:55:24
(UTC+00:00)

Vanguard 2 Rocket - Pass Details

Date: 06 October 2020
Orbit: 554 x 3326 km, 32.9° (Epoch: 26 October)

Event Time Altitude Azimuth Distance (km) Brightness Sun altitude
Exits shadow 04:03:28 26° 244° (WSW) 4,674 9.9 -21.0°
Maximum altitude 04:13:53 44° 194° (SSW) 4,089 9.9 -19.4°
Drops below altitude 10° 04:31:45 10° 131° (SE) 6,017 11.6 -16.5°
Sets 04:36:21 0° 126° (SE) 6,812 12.1 -15.7°
